Hourly Weather Kerewan

Today, 16 April, Friday

Time Temperature Precipitation Wind Pressure Humidity
00:00 +28°C° 0 mm 3 mps 756 mmHg 43%
01:00 +27°C° 0 mm 3 mps 755 mmHg 44%
02:00 +26°C° 0 mm 3 mps 755 mmHg 46%
03:00 +26°C° 0 mm 3 mps 755 mmHg 47%
04:00 +25°C° 0 mm 3 mps 755 mmHg 49%
05:00 +25°C° 0 mm 3 mps 755 mmHg 50%
06:00 +26°C° 0 mm 3 mps 756 mmHg 45%
07:00 +27°C° 0 mm 3 mps 756 mmHg 41%
08:00 +29°C° 0 mm 3 mps 756 mmHg 36%
09:00 +33°C° 0 mm 3 mps 756 mmHg 29%
10:00 +35°C° 0 mm 3 mps 756 mmHg 23%
11:00 +38°C° 0 mm 3 mps 755 mmHg 17%
12:00 +39°C° 0 mm 3 mps 755 mmHg 16%
13:00 +41°C° 0 mm 4 mps 754 mmHg 15%
14:00 +42°C° 0 mm 4 mps 753 mmHg 14%
15:00 +40°C° 0 mm 5 mps 753 mmHg 21%
16:00 +38°C° 0 mm 6 mps 753 mmHg 27%
17:00 +34°C° 0 mm 7 mps 753 mmHg 34%
18:00 +33°C° 0 mm 7 mps 753 mmHg 36%
19:00 +32°C° 0 mm 6 mps 754 mmHg 38%
20:00 +30°C° 0 mm 6 mps 754 mmHg 40%
21:00 +29°C° 0 mm 5 mps 755 mmHg 41%
22:00 +28°C° 0 mm 5 mps 755 mmHg 41%
23:00 +27°C° 0 mm 4 mps 755 mmHg 42%

Tomorrow, 17 April, Saturday

Time Temperature Precipitation Wind Pressure Humidity
00:00 +27°C° 0 mm 4 mps 755 mmHg 43%
01:00 +26°C° 0 mm 3 mps 755 mmHg 45%
02:00 +25°C° 0 mm 3 mps 755 mmHg 47%
03:00 +25°C° 0 mm 2 mps 755 mmHg 48%
04:00 +24°C° 0 mm 2 mps 755 mmHg 50%
05:00 +24°C° 0 mm 2 mps 756 mmHg 51%
06:00 +25°C° 0 mm 2 mps 756 mmHg 47%
07:00 +27°C° 0 mm 3 mps 757 mmHg 42%
08:00 +28°C° 0 mm 3 mps 757 mmHg 37%
09:00 +31°C° 0 mm 3 mps 757 mmHg 31%
10:00 +35°C° 0 mm 3 mps 757 mmHg 24%
11:00 +38°C° 0 mm 3 mps 756 mmHg 17%
12:00 +39°C° 0 mm 3 mps 755 mmHg 16%
13:00 +41°C° 0 mm 4 mps 755 mmHg 14%
14:00 +43°C° 0 mm 4 mps 754 mmHg 13%
15:00 +40°C° 0 mm 5 mps 754 mmHg 20%
16:00 +38°C° 0 mm 6 mps 754 mmHg 26%
17:00 +34°C° 0 mm 7 mps 754 mmHg 33%
18:00 +33°C° 0 mm 6 mps 754 mmHg 39%
19:00 +30°C° 0 mm 6 mps 755 mmHg 45%
20:00 +28°C° 0 mm 5 mps 755 mmHg 51%
21:00 +28°C° 0 mm 5 mps 755 mmHg 49%
22:00 +27°C° 0 mm 4 mps 755 mmHg 48%
23:00 +27°C° 0 mm 4 mps 756 mmHg 47%

Day after tomorrow, 18 April, Sunday

Time Temperature Precipitation Wind Pressure Humidity
00:00 +26°C° 0 mm 3 mps 756 mmHg 49%
01:00 +26°C° 0 mm 2 mps 755 mmHg 52%
02:00 +25°C° 0 mm 2 mps 755 mmHg 54%
03:00 +25°C° 0 mm 2 mps 755 mmHg 56%
04:00 +24°C° 0 mm 2 mps 756 mmHg 58%
05:00 +24°C° 0 mm 2 mps 756 mmHg 60%
06:00 +25°C° 0 mm 2 mps 757 mmHg 53%
07:00 +27°C° 0 mm 2 mps 757 mmHg 46%
08:00 +28°C° 0 mm 2 mps 758 mmHg 39%
09:00 +31°C° 0 mm 3 mps 757 mmHg 31%
10:00 +35°C° 0 mm 3 mps 757 mmHg 24%
11:00 +37°C° 0 mm 3 mps 757 mmHg 17%
12:00 +39°C° 0 mm 3 mps 756 mmHg 15%
13:00 +41°C° 0 mm 4 mps 755 mmHg 13%
14:00 +43°C° 0 mm 4 mps 754 mmHg 11%
15:00 +41°C° 0 mm 5 mps 754 mmHg 17%
16:00 +39°C° 0 mm 6 mps 754 mmHg 23%
17:00 +36°C° 0 mm 6 mps 754 mmHg 28%
18:00 +34°C° 0 mm 6 mps 754 mmHg 36%
19:00 +32°C° 0 mm 5 mps 755 mmHg 43%
20:00 +29°C° 0 mm 5 mps 755 mmHg 50%
21:00 +28°C° 0 mm 5 mps 755 mmHg 48%
22:00 +28°C° 0 mm 5 mps 756 mmHg 45%
23:00 +28°C° 0 mm 4 mps 756 mmHg 42%

19 April, Monday

Time Temperature Precipitation Wind Pressure Humidity
00:00 +27°C° 0 mm 3 mps 756 mmHg 42%
01:00 +27°C° 0 mm 2 mps 755 mmHg 41%
02:00 +27°C° 0 mm 1 mps 755 mmHg 41%
03:00 +26°C° 0 mm 1 mps 755 mmHg 41%
04:00 +26°C° 0 mm 1 mps 756 mmHg 42%
05:00 +25°C° 0 mm 1 mps 756 mmHg 43%
06:00 +27°C° 0 mm 2 mps 756 mmHg 38%
07:00 +28°C° 0 mm 2 mps 757 mmHg 33%
08:00 +30°C° 0 mm 3 mps 757 mmHg 27%
09:00 +34°C° 0 mm 3 mps 757 mmHg 22%
10:00 +37°C° 0 mm 4 mps 757 mmHg 17%
11:00 +41°C° 0 mm 4 mps 756 mmHg 12%
12:00 +42°C° 0 mm 4 mps 756 mmHg 12%
13:00 +43°C° 0 mm 4 mps 755 mmHg 11%
14:00 +44°C° 0 mm 4 mps 754 mmHg 10%
15:00 +41°C° 0 mm 5 mps 754 mmHg 17%
16:00 +39°C° 0 mm 6 mps 754 mmHg 24%
17:00 +35°C° 0 mm 6 mps 754 mmHg 31%
18:00 +33°C° 0 mm 6 mps 754 mmHg 36%
19:00 +32°C° 0 mm 5 mps 754 mmHg 41%
20:00 +29°C° 0 mm 5 mps 755 mmHg 47%
21:00 +29°C° 0 mm 4 mps 755 mmHg 45%
22:00 +28°C° 0 mm 4 mps 755 mmHg 43%
23:00 +28°C° 0 mm 3 mps 756 mmHg 41%

20 April, Tuesday

Time Temperature Precipitation Wind Pressure Humidity
00:00 +27°C° 0 mm 2 mps 755 mmHg 45%
01:00 +26°C° 0 mm 2 mps 755 mmHg 48%
02:00 +26°C° 0 mm 2 mps 755 mmHg 52%
03:00 +25°C° 0 mm 2 mps 755 mmHg 56%
04:00 +24°C° 0 mm 2 mps 755 mmHg 61%
05:00 +24°C° 0 mm 2 mps 756 mmHg 65%
06:00 +25°C° 0 mm 2 mps 756 mmHg 58%
07:00 +27°C° 0 mm 2 mps 757 mmHg 50%
08:00 +28°C° 0 mm 2 mps 757 mmHg 43%
09:00 +31°C° 0 mm 2 mps 757 mmHg 34%
10:00 +35°C° 0 mm 2 mps 757 mmHg 26%
11:00 +37°C° 0 mm 2 mps 756 mmHg 17%
12:00 +39°C° 0 mm 3 mps 755 mmHg 16%
13:00 +40°C° 0 mm 3 mps 754 mmHg 15%
14:00 +43°C° 0 mm 4 mps 753 mmHg 13%
15:00 +40°C° 0 mm 5 mps 753 mmHg 21%
16:00 +36°C° 0 mm 6 mps 753 mmHg 28%
17:00 +34°C° 0 mm 7 mps 753 mmHg 36%
18:00 +30°C° 0 mm 7 mps 754 mmHg 44%
19:00 +28°C° 0 mm 6 mps 754 mmHg 53%
20:00 +26°C° 0 mm 6 mps 755 mmHg 61%
21:00 +26°C° 0 mm 5 mps 755 mmHg 61%
22:00 +26°C° 0 mm 4 mps 756 mmHg 61%
23:00 +25°C° 0 mm 3 mps 756 mmHg 61%

21 April, Wednesday

Time Temperature Precipitation Wind Pressure Humidity
00:00 +25°C° 0 mm 3 mps 756 mmHg 64%
01:00 +24°C° 0 mm 3 mps 755 mmHg 68%
02:00 +24°C° 0 mm 2 mps 755 mmHg 72%
03:00 +23°C° 0 mm 2 mps 755 mmHg 74%
04:00 +23°C° 0 mm 2 mps 755 mmHg 76%
05:00 +23°C° 0 mm 2 mps 756 mmHg 78%
06:00 +24°C° 0 mm 2 mps 756 mmHg 69%
07:00 +26°C° 0 mm 2 mps 756 mmHg 60%
08:00 +27°C° 0 mm 2 mps 757 mmHg 51%
09:00 +30°C° 0 mm 2 mps 757 mmHg 42%
10:00 +33°C° 0 mm 3 mps 756 mmHg 32%
11:00 +36°C° 0 mm 3 mps 756 mmHg 23%
12:00 +37°C° 0 mm 4 mps 755 mmHg 22%
13:00 +40°C° 0 mm 4 mps 754 mmHg 20%
14:00 +41°C° 0 mm 5 mps 753 mmHg 19%
15:00 +39°C° 0 mm 5 mps 753 mmHg 25%
16:00 +36°C° 0 mm 6 mps 753 mmHg 31%
17:00 +34°C° 0 mm 6 mps 754 mmHg 37%
18:00 +30°C° 0 mm 6 mps 754 mmHg 47%
19:00 +28°C° 0 mm 5 mps 755 mmHg 56%
20:00 +25°C° 0 mm 5 mps 755 mmHg 66%
21:00 +25°C° 0 mm 5 mps 755 mmHg 66%
22:00 +25°C° 0 mm 4 mps 755 mmHg 66%
23:00 +25°C° 0 mm 4 mps 755 mmHg 67%
Show more